Home > Weather > Tananger > Past weeks

Flag for Norway Past Weather in Tananger, Norway — Yesterday and Last 2 Weeks

Now
64 °F

Partly sunny.


Feels Like: 64 °F
Forecast: 61 / 64 °F
Wind: 10 mph from South

Location: Stavanger / Sola

Current Time: Aug 24, 2016 at 10:46:57 AM

Latest Report: Aug 24, 2016 at 9:50 AM


Visibility: N/A

Pressure: 30.15 "Hg

Humidity: 78%

Dew Point: 57 °F

Location of TanangerLocation

Past Weather in Tananger — Graph

°F

Tananger Temperature Yesterday

Maximum temperature yesterday: 66 °F (at 4:20 PM)
Minimum temperature yesterday: 57 °F (at 1:50 AM)
Average temperature yesterday: 61 °F

High & Low Weather Summary for the Past Weeks

 TemperatureHumidityPressure
High70 °F (Aug 21, 12:20 PM)100% (Aug 12, 8:20 AM)30.24 "Hg (Aug 12, 8:20 AM)
Low43 °F (Aug 11, 5:50 AM)51% (Aug 11, 12:20 PM)29.68 "Hg (Aug 13, 10:20 AM)
Average58 °F83%29.98 "Hg
* Reported Aug 9 9:20 AM — Aug 24 9:20 AM, Tananger, Weather by CustomWeather, © 2016

Note: Actual official high and low records may vary slightly from our data, if they occured in-between our weather recording intervals... More about our weather records

Advertising

Tananger Weather History for the Previous 24 Hours

Scroll right to see more
 ConditionsComfort  
Time TempWeatherWind HumidityBarometerVisibility
9:20 AM
Wed, Aug 24
64 °FPartly sunny.13 mph78%30.15 "HgN/A
8:50 AM64 °FBroken clouds.7 mph78%30.15 "HgN/A
8:20 AM61 °FPartly sunny.3 mph83%30.15 "HgN/A
7:50 AM59 °FPartly sunny.No wind88%30.18 "HgN/A
7:20 AM59 °FBroken clouds.No wind88%30.18 "HgN/A
6:50 AM59 °FPassing clouds.2 mph88%30.18 "HgN/A
6:20 AM59 °FPassing clouds.3 mph88%30.18 "HgN/A
5:50 AM59 °FPartly cloudy.2 mph88%30.18 "HgN/A
4:50 AM59 °FPassing clouds.1 mph88%30.21 "HgN/A
3:50 AM59 °FPartly cloudy.3 mph88%30.21 "HgN/A
2:50 AM59 °FPartly cloudy.6 mph88%30.24 "HgN/A
2:20 AM59 °FPassing clouds.5 mph88%30.24 "HgN/A
1:50 AM59 °FPassing clouds.5 mph88%30.24 "HgN/A
1:20 AM61 °FPassing clouds.6 mph83%30.24 "HgN/A
12:50 AM59 °FPassing clouds.6 mph88%30.24 "HgN/A
12:20 AM59 °FPartly cloudy.5 mph88%30.24 "HgN/A
11:50 PM
Tue, Aug 23
59 °FPartly cloudy.3 mph88%30.24 "HgN/A
11:20 PM59 °FPartly cloudy.3 mph88%30.24 "HgN/A
10:50 PM59 °FPartly cloudy.2 mph88%30.24 "HgN/A
10:20 PM59 °FPassing clouds.2 mph88%30.24 "HgN/A
9:50 PM61 °FPartly sunny.2 mph83%30.24 "HgN/A
9:20 PM61 °FPartly sunny.3 mph88%30.24 "HgN/A
8:50 PM63 °FPartly sunny.5 mph83%30.24 "HgN/A
8:20 PM63 °FPartly sunny.5 mph83%30.24 "HgN/A
7:50 PM63 °FPartly sunny.6 mph83%30.24 "HgN/A
7:20 PM63 °FPartly sunny.5 mph83%30.24 "HgN/A
6:50 PM63 °FPartly sunny.6 mph83%30.24 "HgN/A
6:20 PM64 °FPartly sunny.7 mph78%30.24 "HgN/A
5:50 PM64 °FScattered clouds.8 mph78%30.24 "HgN/A
5:20 PM66 °FScattered clouds.8 mph78%30.21 "HgN/A
4:50 PM64 °FScattered clouds.9 mph78%30.24 "HgN/A
4:20 PM66 °FPassing clouds.7 mph78%30.24 "HgN/A
3:50 PM64 °FScattered clouds.8 mph78%30.24 "HgN/A
3:20 PM64 °FBroken clouds.7 mph78%30.24 "HgN/A
2:50 PM64 °FBroken clouds.6 mph78%30.24 "HgN/A
2:20 PM64 °FBroken clouds.5 mph78%30.24 "HgN/A
1:50 PM64 °FBroken clouds.6 mph78%30.24 "HgN/A
1:20 PM64 °FPartly sunny.5 mph73%30.24 "HgN/A
12:50 PM64 °FBroken clouds.5 mph73%30.24 "HgN/A
12:20 PM64 °FScattered clouds.3 mph78%30.24 "HgN/A
11:50 AM64 °FScattered clouds.3 mph78%30.24 "HgN/A
11:20 AM63 °FScattered clouds.2 mph77%30.21 "HgN/A
10:50 AM64 °FScattered clouds.1 mph78%30.21 "HgN/A
10:20 AM63 °FScattered clouds.No wind83%30.21 "HgN/A
Weather by CustomWeather, © 2016

See weather overviewHow to use our weather pages